Content
SEND FEEDBACK

Daily
Averages
Monthly
Summary
United States of America

NEW YORK - CENTRAL PARK, NEW YORK


Home > North America > United States > New York
Elevation: 4 meters     Latitude: 40 47N     Longitude: 073 58W

WEATHER
 
SELECT A DAY
Number of Records: 148,039;   Date Range: 11/1/95 - 7/23/14
 
SHARE

PRINT THIS DATA

[ ← Previous Day ]
WEATHER ALMANAC - 1 FEBRUARY, 2013
[ Next Day → ]
[ °F ]   °C
Weather ElementAverageHighLow
Temperature-2.3 °C-1.1 °C (11:51 am)-4.4 °C (10:51 pm)
Dewpoint-12.6 °C-10.6 °C (9:51 pm)-15.6 °C (11:51 am)
Humidity46.1 %60 % (9:51 pm)33 % (11:51 am)
Barometer1014.2 hPa1023.7 hPa (11:51 pm)1009.1 hPa (3:51 am)
Wind Speed13.7 km/h24.1 km/h (1:51 pm)
Wind Gust51.8 km/h (1:51 pm)
Weather ElementAverage
Visibility16.1 km
Wind DirectionS (176.1 °)

Weather ElementTotal
Precipitation---
Heating Degree Days21.1 (Base 18.3)
Averaged from 23 records on 1 February, 2013
WEATHER CONDITIONS BREAKOUT
WIND DIRECTION BREAKOUT
WEATHER BY HOUR - 1 FEBRUARY, 2013
[ °F ]   °C
Local TimeTemperatureDewpointHumidityBarometerVisibilityWind DirectionWind SpeedGust SpeedPrecipitationEventsConditions
1:51 AM-1.7 °C-11.7 °C47 %1009.5 hPa16.1 kmVariable9.3 km/h31.5 km/hClear
2:51 AM-1.7 °C-11.7 °C47 %1009.5 hPa16.1 kmCalmPartly Cloudy
3:51 AM-2.2 °C-11.7 °C49 %1009.1 hPa16.1 kmVariable9.3 km/h27.8 km/hClear
4:51 AM-1.7 °C-12.2 °C45 %1009.5 hPa16.1 kmWSW (250°)13 km/h48.1 km/hClear
5:51 AM-2.2 °C-11.1 °C51 %1009.8 hPa16.1 kmNorthMostly Cloudy
6:51 AM-1.7 °C-11.7 °C47 %1010.5 hPa16.1 kmWest (280°)13 km/h31.5 km/hScattered Clouds
7:51 AM-1.7 °C-11.7 °C47 %1010.8 hPa16.1 kmWNW (300°)14.8 km/h33.3 km/hMostly Cloudy
8:51 AM-1.7 °C-11.7 °C47 %1011.2 hPa16.1 kmWest (280°)16.7 km/h25.9 km/hOvercast
9:51 AM-1.7 °C-13.3 °C41 %1011.5 hPa16.1 kmWNW (290°)11.1 km/hOvercast
10:51 AM-1.7 °C-13.9 °C40 %1011.9 hPa16.1 kmNW (310°)16.7 km/h33.3 km/hOvercast
11:51 AM-1.1 °C-15.6 °C33 %1011.2 hPa16.1 kmWNW (300°)18.5 km/h38.9 km/hMostly Cloudy
12:51 PM-1.1 °C-15.6 °C33 %1011.5 hPa16.1 kmNorthMostly Cloudy
1:51 PM-1.1 °C-15 °C35 %1012.5 hPa16.1 kmWNW (290°)24.1 km/h51.8 km/hMostly Cloudy
2:51 PM-1.7 °C-13.9 °C40 %1013.5 hPa16.1 kmNW (310°)14.8 km/h37 km/hMostly Cloudy
3:51 PM-1.7 °C-15 °C36 %1014.6 hPa16.1 kmNorthPartly Cloudy
4:51 PM-1.7 °C-13.3 °C41 %1016.3 hPa16.1 kmWNW (290°)11.1 km/h25.9 km/hClear
5:51 PM-2.8 °C-11.1 °C53 %1017.9 hPa16.1 kmWNW (300°)18.5 km/h33.3 km/hScattered Clouds
6:51 PM-3.3 °C-11.1 °C55 %1019.3 hPa16.1 kmVariable11.1 km/hPartly Cloudy
7:51 PM-3.3 °C-11.7 °C53 %1020.7 hPa16.1 kmNorthClear
8:51 PM-3.3 °C-12.2 °C51 %1021.3 hPa16.1 kmVariable7.4 km/h27.8 km/hMostly Cloudy
9:51 PM-3.9 °C-10.6 °C60 %1022 hPa16.1 kmWest (280°)13 km/hClear
10:51 PM-4.4 °C-11.7 °C57 %1023 hPa16.1 kmWNW (290°)22.2 km/h35.2 km/hClear
11:51 PM-4.4 °C-12.8 °C53 %1023.7 hPa16.1 kmWest (280°)14.8 km/h31.5 km/hClear
Hourly data recorded from KNYC, located 0 kilometers away from New York - Central Park, New York







STORIES FROM OUR PARTNERS